#timestamp,LO_Frequency,Hit,StdDev 
1697587215.5,286047000.8,N
1697587235.4,286046998.4,N
1697587255.2,286047001.1,N
1697587275.0,286047000.7,N
1697587275.9,286047000.7,N
1697587295.8,286047001.1,N
1697587315.6,286046998.1,N
1697587335.4,286047000.7,N
1697587355.3,286047000.5,N
1697587375.1,286047000.9,N
1697587395.9,286046999.3,N
1697587415.7,286046999.0,N
1697587435.5,286046998.6,N
1697587455.4,286046998.3,N
1697587475.2,286046999.3,N
1697587495.0,286046996.9,N
1697587495.9,286046996.9,N
1697587515.8,286046997.9,N
1697587535.6,286046997.7,N
1697587555.5,286046997.2,N
1697587575.3,286046997.0,N
1697587595.1,286046998.0,N
1697587615.9,286046994.9,Y
1697587635.7,286046996.9,P
1697587655.5,286046997.3,N
1697587675.4,286046994.9,P
1697587695.2,286046995.4,Y
1697587715.1,286047001.2,P
1697587716.0,286047001.2,N
1697587735.8,286047000.0,N
1697587755.6,286047002.7,N
1697587775.5,286046999.9,N
1697587795.3,286047000.7,N
1697587815.2,286046998.5,N
1697587835.9,286047001.2,N
1697587855.7,286047000.8,N
1697587875.6,286047000.8,N
1697587895.4,286047000.3,N
1697587915.3,286047000.9,N
1697587935.1,286047000.0,N
1697587936.0,286047000.0,N
1697587955.8,286047000.4,N
1697587975.7,286047001.2,N
1697587995.5,286046998.4,N
1697588015.4,286046998.8,N
1697588035.2,286046999.3,N
1697588055.0,286046999.3,N
1697588055.9,286046999.3,N
1697588075.8,286046999.6,N
1697588095.6,286046997.2,N
1697588115.5,286046998.2,N
1697588135.3,286047001.0,N
1697588155.1,286046998.4,N
1697588175.9,286046998.2,N
1697588195.7,286046998.2,N
1697588215.6,286046998.8,N
1697588235.4,286046997.7,N
1697588255.2,286046999.3,N
1697588275.1,286046999.0,N
1697588276.0,286046999.0,N
1697588295.8,286046996.5,N
1697588315.6,286046998.4,N
1697588335.5,286047000.9,N
1697588355.3,286046999.3,N
1697588375.2,286046998.7,N
1697588395.0,286046998.8,N
1697588395.9,286046998.8,N
1697588415.8,286046999.5,N
1697588435.6,286046999.2,N
1697588455.4,286046999.2,N
1697588475.3,286046998.9,N
1697588495.1,286046998.4,N
1697588515.8,286046998.8,N
1697588535.7,286046998.1,N
1697588555.5,286046998.2,N
1697588575.4,286046999.4,N
1697588595.2,286046999.1,N
1697588615.0,286046998.9,N
1697588615.9,286046998.9,N
1697588635.8,286046998.8,N
1697588655.6,286046998.6,N
1697588675.5,286046998.6,N
1697588695.3,286046998.3,N
1697588715.1,286047000.8,N
1697588735.9,286046999.2,N
1697588755.7,286046998.8,N
1697588775.5,286046998.8,N
1697588795.4,286046999.0,N
1697588815.2,286046999.2,N
1697588835.1,286046998.7,N
1697588836.0,286046998.7,N
1697588855.8,286046997.1,Y
1697588875.6,286046998.9,P
1697588895.5,286046998.8,P
1697588915.3,286046998.4,P
1697588935.2,286047001.1,Y
1697588955.9,286047002.3,P
1697588975.7,286047000.2,N
1697588995.6,286047000.1,N
1697589015.4,286047000.1,N
1697589035.2,286046999.9,N
1697589055.1,286047000.2,N
1697589056.0,286047000.2,N
1697589075.8,286047002.8,Y
1697589095.7,286047002.7,P
1697589115.5,286047000.7,N
1697589135.3,286046999.9,N
1697589155.2,286047002.7,N
1697589175.0,286047002.4,N
1697589175.9,286047002.4,N
1697589195.8,286047002.7,N
1697589215.6,286047002.0,N
1697589235.4,286047001.9,N
1697589255.3,286047001.6,N
1697589275.1,286047002.5,N
1697589295.9,286047001.3,N
1697589315.7,286047001.7,N
1697589335.5,286047004.0,Y
1697589355.4,286046999.8,P
1697589375.2,286047002.3,N
1697589395.0,286047002.7,N
1697589395.9,286047002.7,N
1697589415.8,286047001.6,N
1697589435.6,286047003.7,Y
1697589455.5,286047000.3,P
1697589475.3,286047000.1,N
1697589495.1,286047002.6,P
1697589515.9,286047000.2,N
1697589535.7,286047002.6,N
1697589555.6,286047001.6,N
1697589575.4,286047001.4,N
1697589595.2,286047004.4,Y
1697589615.1,286047002.8,P
1697589616.0,286047002.8,P
1697589635.8,286047002.1,N
1697589655.7,286047002.5,Y
1697589675.5,286046999.0,P
1697589695.3,286047000.8,N
1697589715.2,286047000.8,N
1697589735.0,286047000.3,N
1697589735.9,286047000.3,N
1697589755.8,286047000.5,N
1697589775.6,286046998.2,N
1697589795.4,286046999.9,N
1697589815.3,286047000.7,N
1697589835.1,286047000.1,N
1697589855.8,286047000.9,N
1697589875.7,286047000.7,N
1697589895.5,286047000.9,N
1697589915.4,286047000.5,N
1697589935.2,286047000.6,N
1697589955.0,286047000.7,N
1697589955.9,286047000.7,N
1697589975.8,286047000.1,N
1697589995.6,286046999.8,N
1697590015.4,286047002.6,Y
1697590035.3,286046999.9,P
1697590055.1,286046999.8,N
1697590075.9,286046999.8,N
1697590095.7,286047002.4,Y
1697590115.5,286047002.3,P
1697590135.4,286047002.7,N
1697590155.2,286047002.4,N
1697590175.1,286047002.2,N
1697590176.0,286047002.2,N
1697590195.8,286047002.5,N
1697590215.6,286047002.3,N
1697590235.5,286047002.3,N
1697590255.3,286047001.3,N
1697590275.2,286047001.9,N
1697590295.9,286047002.2,N
1697590315.7,286047002.7,Y
1697590335.6,286046998.7,P
1697590355.4,286046998.6,N
1697590375.3,286047001.2,N
1697590395.1,286047000.7,N
1697590396.0,286047000.7,N
1697590415.8,286047000.9,N
1697590435.7,286047001.1,N
1697590455.5,286047000.9,N
1697590475.3,286047000.4,N
1697590495.2,286047000.1,N
1697590515.0,286047000.0,N
1697590515.9,286047000.0,N
1697590535.8,286047002.5,N
1697590555.6,286046999.7,N
1697590575.4,286047000.0,N
1697590595.3,286047002.2,N
1697590615.1,286046999.7,N
1697590635.9,286047002.7,N
1697590655.7,286047002.7,N
1697590675.5,286047000.0,N
1697590695.4,286047000.6,N
1697590715.2,286047000.4,N
1697590735.0,286047002.4,N
1697590736.0,286047002.4,N
1697590755.8,286047002.5,N
1697590775.6,286047002.0,N
1697590795.5,286047001.5,N
